Flag for Trinidad and Tobago Weather past 2 weeks in Port of Spain, Trinidad and Tobago

Now
79 °F

Passing clouds.


Feels Like: 82 °F
Forecast: 80 / 86 °F
Wind: 3 mph from East

Location: Piarco International Airport - Trinidad

Current Time: Jul 2, 2015 at 2:28:29 AM

Latest Report: Jul 2, 2015 at 1:00 AM


Visibility: N/A

Pressure: 29.95 "Hg

Humidity: 84%

Dew point: 73 °F

Location of Port of SpainLocation

Historic Weather in Port of Spain — Graph

°F

Port of Spain temperature yesterday

Maximum temperature yesterday: 90 °F (at 2:00 PM)
Minimum temperature yesterday: 77 °F (at 3:00 AM)
Average temperature yesterday: 82 °F

Past Weeks' High & Low Weather Summary

 TemperatureHumidityPressure
High90 °F (Jun 17, 11:00 AM)100% (Jun 22, 5:00 AM)30.07 "Hg (Jun 22, 5:00 AM)
Low75 °F (Jun 23, 3:00 AM)52% (Jun 25, 1:00 PM)29.89 "Hg (Jun 17, 4:00 PM)
Average81 °F81%29.99 "Hg
* Reported Jun 17 1:00 AM — Jul 2 1:00 AM, Port of Spain, Weather by CustomWeather, © 2015

Note: Actual official high and low records may vary slightly from our data, if they occured in-between our weather recording intervals... More about our weather records

Advertising

Port of Spain weather history for previous 24 hours

 ConditionsComfort  
Time TempWeatherWind HumidityBarometerVisibility
1:00 AM
Thu, Jul 2
79 °FPassing clouds.3 mph84%29.95 "HgN/A
12:00 AM79 °FPassing clouds.3 mph84%29.98 "HgN/A
11:00 PM
Wed, Jul 1
79 °FLight rain. Overcast.No wind84%29.98 "Hg6 mi
10:00 PM79 °FPassing clouds.3 mph79%29.98 "HgN/A
9:00 PM81 °FPassing clouds.8 mph74%29.98 "HgN/A
8:00 PM81 °FPassing clouds.8 mph79%29.98 "HgN/A
7:00 PM81 °FPassing clouds.9 mph79%29.95 "Hg6 mi
6:00 PM82 °FPassing clouds.9 mph74%29.92 "HgN/A
4:00 PM86 °FScattered showers. Passing clouds.16 mph62%29.92 "HgN/A
3:00 PM90 °FScattered showers. Passing clouds.18 mph55%29.95 "HgN/A
2:00 PM90 °FPassing clouds.16 mph52%29.95 "HgN/A
11:00 AM88 °FPassing clouds.16 mph55%30.01 "HgN/A
10:00 AM86 °FPassing clouds.23 mph59%30.01 "HgN/A
9:00 AM84 °FPassing clouds.16 mph70%30.01 "HgN/A
7:00 AM81 °FPassing clouds.7 mph79%30.01 "HgN/A
6:00 AM77 °FPassing clouds.No wind89%29.98 "HgN/A
5:00 AM77 °FPassing clouds.3 mph89%29.98 "HgN/A
4:00 AM79 °FPassing clouds.3 mph84%29.95 "HgN/A
3:00 AM77 °FPassing clouds.7 mph89%29.95 "HgN/A
2:00 AM79 °FPassing clouds.6 mph89%29.95 "HgN/A
Weather by CustomWeather, © 2015

See weather overviewHow to use our weather pages